Regional Weather Roundup
Issued by NWS Charleston, SC

Current Version | Previous Version | Graphics & Text | Print | Product List | Glossary On
Versions: 1 2 3 4 5 6 7 8 9 10 11 12 13 14 15 16 17 18 19 20 21 22 23 24 25 26 27 28 29 30 31 32 33 34 35 36 37 38 39 40 41 42 43 44 45 46 47 48 49 50
000
ASUS42 KCHS 260926
RWRCHS

REGIONAL WEATHER ROUNDUP
NATIONAL WEATHER SERVICE CHARLESTON SC
500 AM EDT THU MAR 26 2015

NOTE: "FAIR" INDICATES FEW OR NO CLOUDS BELOW 12,000 FEET WITH NO
SIGNIFICANT WEATHER AND/OR OBSTRUCTIONS TO VISIBILITY.

NOT ALL STATIONS ARE QUALITY CONTROLLED BY THE NATIONAL
WEATHER SERVICE. USE DATA WITH CAUTION...ESPECIALLY
DEWPOINT OBSERVATIONS.

SCZ027-030-031-034>040-042>050-261000-
...SOUTHEAST SOUTH CAROLINA...

CITY           SKY/WX    TMP DP  RH WIND       PRES   REMARKS
N CHARLESTON   PTCLDY    62  61  96 W5        30.00F
WATERFRONT PRK   N/A     63 N/A N/A CALM        N/A
MOUNT PLEASANT CLOUDY    64  63  94 CALM      30.00F
PINOPOLIS        N/A     66  63  88 VRB2      29.92F
MONCKS CORNER  PTSUNNY   61  59  94 CALM      30.00F FOG
SUMMERVILLE    NOT AVBL
BEAUFORT MCAS  CLOUDY    59  59 100 W6        30.02S FOG
BEAUFORT ARPT  FOG       59  59 100 CALM      30.02R VSB 1
HILTON HEAD IS FOG       61  61 100 W3        30.04R VSB 1/2
WALTERBORO     CLOUDY    59  59 100 W7        30.02F
ALLENDALE      CLOUDY    63  61  94 CALM      30.01F

...SOUTHERN MIDLANDS AND PEE DEE...

CITY           SKY/WX    TMP DP  RH WIND       PRES   REMARKS
GEORGETOWN     NOT AVBL
KINGSTREE      NOT AVBL
ORANGEBURG     CLOUDY    62  59  90 SW8       30.01F
BARNWELL       CLOUDY    63  63 100 S5        30.03S
AIKEN          CLOUDY    59  59 100 S6        30.04S FOG
MANNING        PTSUNNY   61  59  94 SW3       30.00F
COLUMBIA       CLOUDY    63  59  87 SW7       29.99F
SUMTER         CLOUDY    63  61  94 SW6       29.98F
FLORENCE       MOCLDY    65  63  93 S9        29.99F
MYRTLE BEACH   CLOUDY    66  63  88 S6        30.02F
N MYRTLE BEACH CLOUDY    65  63  93 S8        30.00F

$$

GAZ063-065-086>088-099>101-113>116-118-119-134>141-150-261000-
...SOUTHEAST GEORGIA...

CITY           SKY/WX    TMP DP  RH WIND       PRES   REMARKS
SAVANNAH ARPT  CLOUDY    60  59  96 W3        30.03S FOG
HUNTER AAF     CLOUDY    61  61 100 W3        30.01S FOG
FORT STEWART   MOCLDY    59  59 100 CALM      30.01S FOG
STATESBORO     CLOUDY    62  62 100 S5        30.03S
SYLVANIA       CLOUDY    62  62 100 CALM      30.04S FOG
CLAXTON        CLOUDY    63  61  94 CALM      30.03F FOG

...CSRA...CENTRAL AND FAR SOUTHEAST GEORGIA...

CITY           SKY/WX    TMP DP  RH WIND       PRES   REMARKS
THOMSON        CLOUDY    62  62 100 CALM      30.06S VSB 1/4
AUGUSTA-BUSH   CLOUDY    62  61  96 S6        30.01F FOG
AUGUSTA-DANIEL CLOUDY    63  61  93 S7        30.01F FOG
SWAINSBORO     CLOUDY    64  64 100 S3        30.03F
VIDALIA        CLOUDY    63  63 100 S5        30.02F FOG
EASTMAN        CLOUDY    56  56 100 CALM      30.04S FOG
HAZLEHURST     CLOUDY    63  63 100 CALM      30.01S
ALMA           CLOUDY    61  60  97 SE3       30.02S FOG
WAYCROSS       FOG       61  61  99 CALM      30.02S VSB 1
JESUP          FOG       63  63 100 CALM      30.03S VSB 1/4
BAXLEY         CLOUDY    63  61  94 CALM      30.02S FOG
BRUNSWICK      CLOUDY    57  55  94 CALM      30.03S VSB 1/4
SAINT SIMONS   MOCLDY    60  59  96 CALM      30.02F FOG

$$

SCZ027-028-034-036>038-045-046-048>050-GAZ119-141-261000-
...LAKE AND SUPPLEMENTAL COASTAL OBSERVATIONS...

STATION/POSITION TIME  TEMP    WIND        PRES    WAVE   SWELL
                       AIR SEA DIR/SP/G            HT/PER HT/PER/DIR
                 (UTC) (F)     (DEG/KT/KT) (MB)    (FT/S) (FT/S/D)
UPR LAKE MARION  NOT AVBL
WINYAH BAY       0800   62     340/  1     1016.0
LAKE MURRAY      0900   62     220/  7/  9 1015.2F
ACE BASIN NERRS  NOT AVBL
FORT PULASKI     0900   59 61  270/  5/  6 1017.2F
SAPELO ISLAND    0900   60        CALM     1016.0F

$$

ANZ835-935-AMZ111-154-330-350-352-354-370-450-454-472-261000-
...C-MAN AND BUOY OBSERVATIONS...

STATION/POSITION TIME  TEMP    WIND        PRES    WAVE   SWELL
                       AIR SEA DIR/SP/G            HT/PER HT/PER/DIR
                 (UTC) (F)     (DEG/KT/KT) (MB)    (FT/S) (FT/S/D)
BUOY 41004       0850   71 70  200/  6/  8 1014.9F   8/ 8   8/ 8
BUOY 41008       0850   61 61  290/  6/  8 1016.4F   3/ 9   3/ 80/ 9
FOLLY BEACH CMAN 0900   61     260/  2/  4 1015.9F
CAPERS NEARSHORE 0800   60     320/  2/  6   N/A
FRIPP NEARSHORE  0800   60     270/  6/  8 1016.4F


STATION/POSITION TIME  TEMP    WIND        PRES    WAVE   SWELL
                       AIR SEA DIR/SP/G            HT/PER HT/PER/DIR
                 (UTC) (F)     (DEG/KT/KT) (MB)    (FT/S) (FT/S/D)
5E ST. MARYS GA  0821      62                N/A     3/ 8
FRYING PAN BUOY  0850   73 70  150/ 21/ 27 1017.0F   8/ 8
BUOY 41025       NOT AVBL
CAPE LOOKOUT NC  0900   65     150/ 16/ 17 1018.4F
BUOY 41002       0850   69 70  160/ 19/ 23 1021.4F   7/ 7
BUOY 41010       0820   76 76  150/ 16/ 17 1016.9F
ST AUGUSTINE FL  0900   61 64   CALM  /  1 1017.4S


$$



USA.gov is the U.S. government's official web portal to all federal, state and local government web resources and services.